Location: Ku?niki
(51.4449°N, 17.8974°E)
Time: 19:24:44
(UTC+00:00)

COSMOS 2406 - Pass Details

Date: 18 September 2020
Orbit: 844 x 863 km, 71.0° (Epoch: 21 October)

Event Time Altitude Azimuth Distance (km) Brightness Sun altitude
Rises 19:02:46 0° 331° (NNW) 3,417 7.4 -19.8°
Reaches altitude 10° 19:05:19 10° 337° (NNW) 2,477 6.4 -20.1°
Maximum altitude 19:10:49 48° 51° (NE) 1,093 3.6 -20.9°
Enters shadow 19:12:19 39° 94° (E) 1,249 3.6 -21.1°
